Regional Weather Roundup
Issued by NWS Wakefield, VA

Home | Current Version | Previous Version | Graphics & Text | Print | Product List | Glossary On
Versions: 1 2 3 4 5 6 7 8 9 10 11 12 13 14 15 16 17 18 19 20 21 22 23 24 25 26 27 28 29 30 31 32 33 34 35 36 37 38 39 40 41 42 43 44 45 46 47 48 49
000
ASUS41 KAKQ 071015
RWRAKQ

REGIONAL WEATHER ROUNDUP
NATIONAL WEATHER SERVICE WAKEFIELD VA
500 AM EST SUN FEB 07 2016

Note: "fair" indicates few or no clouds below 12,000 feet with no
significant weather and/or obstructions to visibility. * = Denotes
station may not report precipitation (e.g., rain,snow,etc.),
thunder or fog.

VAZ042-051-052>054-056-071100-
NORTHERN VIRGINIA

CITY           SKY/WX    TMP DP  RH WIND       PRES   REMARKS
WASH NATIONAL  MOCLDY    30  25  81 SW5       30.23S
DULLES         FAIR      24  21  88 SE3       30.20F
FORT BELVOIR   FAIR      24  22  91 CALM      30.22S
QUANTICO       FAIR      30  26  85 NW5       30.23F
FREDERICKSBRG* FAIR      28  26  94 CALM      30.22R
STAFFORD*      FAIR      24  22  91 CALM      30.25S
WARRENTON      FAIR      23  22  98 CALM      30.20S
CULPEPER*      FAIR      22  20  90 CALM      30.21F
MANASSAS*      FAIR      21  19  93 CALM      30.22S
LEESBURG*      FAIR      28  27  93 CALM      30.21S
WINCHESTER     FAIR      28  21  74 W6        30.18F
FRONT ROYAL*   FAIR      28  21  74 CALM      30.17F
LURAY*         FAIR      23  23 100 CALM      30.18S
$$

VAZ048-049-060>072-079>083-071100-
CENTRAL AND SOUTH CENTRAL VIRGINIA

CITY           SKY/WX    TMP DP  RH WIND       PRES   REMARKS
RICHMOND       CLOUDY    31  28  89 N6        30.18F
CHESTERFIELD*  FAIR      30  16  55 CALM      30.18F
PETERSBURG*    FAIR      32  30  92 CALM      30.17F
HANOVER        FAIR      30  26  85 CALM      30.20F
TAPPAHANNOCK*  FAIR      31  29  94 CALM      30.22R
QUINTON*       FAIR      29  28  94 CALM      30.18F
CHARLOTTSVILLE FAIR      28  20  71 CALM      30.17F
GORDONSVILLE*  FAIR      25  23  91 CALM      30.18F
ORANGE*        FAIR      27  25  93 CALM      30.21F
LOUISA*        FAIR      28  23  80 CALM      30.18S
BUMPASS*       FAIR      28  23  82 CALM      30.21R
FARMVILLE*     FAIR      30  26  85 CALM      30.15F
CREWE*         FAIR      29  27  91 CALM      30.16F
FORT PICKETT*  FAIR      30  29  95 N3        30.15F
CHASE CITY*    FAIR      33  25  73 N3        30.14F
CLARKSVILLE*   FAIR      34  28  80 N5        30.13F
SOUTH HILL*    FAIR      32  28  84 CALM      30.19F
LAWRENCEVILLE* FAIR      32  29  88 CALM      30.15F
EMPORIA*       CLOUDY    32  30  93 CALM      30.17F
$$

VAZ088>098-071100-
SOUTHEAST VIRGINIA

CITY           SKY/WX    TMP DP  RH WIND       PRES   REMARKS
NORFOLK        FAIR      38  27  64 NE12      30.14F
VIRGINIA BEACH MOCLDY    39  30  70 NE9       30.14F
NORFOLK NAVAL  MOCLDY    38  27  64 NE10      30.16F
WEST POINT*    FAIR      30  28  94 CALM      30.21F
SALUDA*        FAIR      30  28  93 N5        30.19F
NEWPORT NEWS   FAIR      30  29  96 N3        30.16F
LANGLEY AFB    FAIR      33  31  90 NE6       30.14F
FORT EUSTIS    FAIR      33  30  88 NE2       30.14F
WILLIAMSBURG*  FAIR      34  32  93 CALM      30.18F
HR EXEC AP*    FAIR      30  27  86 NE3       30.16F
FRANKLIN*      FAIR      32  28  86 CALM      30.18F
US460-WAKEFLD  MOCLDY    32  29  88 CALM      30.16F
$$

VAZ020-022-025-037-045-071100-
WEST CENTRAL AND SOUTHWEST VIRGINIA

CITY           SKY/WX    TMP DP  RH WIND       PRES   REMARKS
STAUNTON*      FAIR      26  22  85 NE3       30.17F
WAYNESBORO*    FAIR      24  19  82 CALM      30.14F
HOT SPRINGS VA FAIR      29  17  60 CALM      30.04F
LYNCHBURG      FAIR      30  20  66 N5        30.15F
DANVILLE       FAIR      32  25  75 CALM      30.16F
SOUTH BOSTON*  FAIR      31  26  79 N3        30.15F
MARTINSVILLE   FAIR      25  21  84 CALM      30.17F
ROANOKE        FAIR      26  19  74 S3        30.18F
BLACKSBURG     FAIR      25  20  83 CALM      30.15S
DUBLIN*        FAIR      27  23  86 CALM      30.14S
MARION*        FAIR      26  18  72 CALM      30.16R
HILLSVILLE*    FAIR      30  18  59 W3        30.10R
RICHLANDS*     FAIR      32  16  50 CALM      30.13R
WISE*          FAIR      32  16  51 CALM      30.14R
ABINGDON*      FAIR      26  19  74 CALM      30.16R
$$

MDZ021>025-VAZ099-100-071100-
SOUTHERN MARYLAND AND THE DELMARVA PENINSULA

CITY           SKY/WX    TMP DP  RH WIND       PRES   REMARKS
PATUXENT RIVER PTCLDY    29  25  85 CALM      30.22S
BAY BRIDGE APT   N/A     30  30 100 CALM      30.22S
LEONARDTOWN    PTCLDY    30  27  86 CALM      30.23S
DOVER          CLEAR     28  26  91 CALM      30.19F
GEORGETOWN     CLOUDY    26  24  92 CALM      30.23R
EASTON         PTCLDY    29  29 100 CALM      30.26R
CAMBRIDGE      PTCLDY    28  27  93 SE3       30.22R
SALISBURY      CLOUDY    26  24  92 CALM      30.22S
OCEAN CITY     CLEAR     25  23  92 N5        30.21F
WALLOPS ISLAND FAIR      28  25  88 CALM      30.22S
ACCOMACK*      FAIR      27  23  86 N5        30.19F
$$

NCZ012>017-030>032-071100-
NORTH CENTRAL AND EASTERN NORTH CAROLINA

CITY           SKY/WX    TMP DP  RH WIND       PRES   REMARKS
ROANOKE RAPIDS FAIR      34  30  86 NE3       30.16F
RALEIGH        CLOUDY    38  24  57 NE6       30.13F
ELIZABETH CITY CLOUDY    39  30  70 N9        30.14F
AHOSKIE*       CLOUDY    36  27  71 N5        30.16F
EDENTON*       CLOUDY    40  29  66 N5        30.16F
CURRITUCK*     CLOUDY    41  29  61 NE13      30.14F
KILL DEVIL HLS CLOUDY    42  32  67 N12G18    30.11F
MANTEO         CLOUDY    42  34  73 NE15G24   30.12F
CAPE HATTERAS  LGT RAIN  43  37  79 NE16G28   30.04F
TARBORO*       LGT RAIN  37  32  81 N5        30.14S
GOLDSBORO      CLOUDY    37  37 100 N7        30.10R
WASHINGTON     RAIN      36  30  79 CALM      30.12F
GREENVILLE     LGT RAIN  37  32  81 NE7       30.13S
NEW BERN       LGT RAIN  38  31  76 N17G23    30.08F
WILMINGTON     LGT RAIN  38  34  85 N20G30    30.00F
$$

VAZ048-071100-
ELSEWHERE

CITY           SKY/WX    TMP DP  RH WIND       PRES   REMARKS
HARRISBURG PA  CLEAR     22  17  81 CALM      30.17F
BALTIMORE      PTCLDY    25  22  88 CALM      30.21S
ANNAPOLIS      CLEAR     29  25  85 CALM      30.22R
ANDREWS AFB    FAIR      27  23  85 SW6       30.20S
PHILADELPHIA   PTCLDY    32  24  72 CALM      30.22S
HENDERSON NC   CLOUDY    34  26  74 CALM      30.14F
GREENSBORO     CLOUDY    35  18  49 N5        30.12F
ROCKY MOUNT    MIX PCPN  35  33  92 N6        30.13F
$$

VAZ100-071100-
MARINE

STATION/POSITION TIME  TEMP    WIND        PRES    WAVE   SWELL
                       AIR SEA DIR/SP/G            HT/PER HT/PER
                 (UTC) (F)     (DEG/KT/KT) (MB)    (FT/S) (FT/S)
BRANDYWINE LGT   0900   36     260/  4/  5 1023.1F
CAPE MAY NJ      0900   32 42   CALM  /  1 1023.0F
LEWES DE         0900   33 42  280/  2/  2 1023.0F
15NM E FENWICK I 0950   40 45              1023.1F   2/10
OCEAN-CITY-INLET 0900   33 42  360/  2/  3 1022.2F
WACHAPREAGUE VA  0900   32 44  320/  4/  6 1022.4F
THOMAS POINT MD  0900          240/  3       N/A
GOOSES REEF MD   1000   37 39  220/  4/  4 1024.2S   0
COVE POINT MD    0900   35     230/  4/  6 1023.8F
SOLOMONS ISLAND  0900   32 41  320/  3/  3   N/A
BISHOPS HEAD MD  0900   38 41  220/  2/  3 1022.1F
POTOMAC MD       1000   37 40  330/  2/  4 1021.9F   0
CAMBRIDGE MD     0900   31 40  200/  2/  2 1022.5F
LEWISETTA VA     0900   33 42  270/  2/  3 1022.7F
RAPPAHANNOCK LGT 0900           10/  6/  7 1022.5F
STINGRAY PT      1000   38 42  360/  6/  8 1021.9F   0
YORK RVR RNG VA  0900   38      30/  6/  7 1022.0F
YORKTOWN VA      0900   35 43  330/  3/  5 1022.6F
JAMESTOWN VA     1000   34 45   10/  4/  6   N/A     0
DOMINION TERM VA 0900   36      30/  4/  6 1022.8F
KIPTOPEKE VA     0900      42   50/  4/  6   N/A
CHES BAY BRIDGE  0900   39 42   20/  9/ 11 1022.3F
CAPE HENRY VA    0900   39      40/ 10/ 13   N/A
CHESAPEAKE LGHT  0900   41      40/ 15/ 15 1023.2F
WILLOUBY STN VA  0900   38      10/  6/  7 1027.5S
CAPE HENRY BUOY  0958      45                N/A     3/11   2/11
1ST LANDING BUOY 1000      42                N/A     2/ 4
CAPE CHARLES BUO 0956      45                N/A     3/10   3/10
OFFSHORE WE BUOY 0951      49                N/A     4/10   3/10
64NM E OF VA BCH 0950   47 54   20/ 21/ 23 1020.0F   5/ 9   3/ 9
DUCK PIER NC     0900   42 45   20/ 20/ 24 1020.5F
44100 DUCK FRF   0954      47                N/A     5/10   2/11
44056 DUCK FRF   0911      44                N/A     4/10   2/11
OREGON INLET NC  0900   43 46   10/ 13/ 20 1020.5F
HATTERAS NC      0900   44 49   10/ 26/ 32 1018.0F
DIAMOND SHLS NC  0950   52 71   20/ 33/ 39 1014.6F   8/ 6   3/11
$$



USA.gov is the U.S. government's official web portal to all federal, state and local government web resources and services.